Вернуться в каталог

NOAA 16 DEB

АктивенSSO
NORAD 42362·DEBRIS·🇺🇸 United States

Запущен Sep 21, 2000 с Vandenberg Space Force Base

Loading…

Ближайшие Пролёты (ближайшие 24 часа)

TLE

СвежийSource: Space-Track

Эпоха: Sep 14, 2026, 03:12 UTC

1 42362U 00055RE  26257.13338925  .00004365  00000-0  22045-2 0  9996
2 42362  98.8462 218.6278 0091214 288.6088  70.5196 14.14601046540315

Отслеживайте NOAA 16 DEB в реальном времени с AllMySat

Download on the App Store